Other Surface Observations
Issued by NWS Tucson, AZ

Home | Current Version | Previous Version | Text Only | Print | Product List | Glossary On
Versions: 1 2 3 4 5 6 7 8 9 10 11 12 13 14 15 16 17 18 19 20 21 22 23 24 25 26 27 28 29 30 31 32 33 34 35 36 37 38 39 40 41 42 43 44 45 46 47 48 49 50
000
SXUS55 KTWC 282315
OSOTWC

WEATHER ROUNDUP FOR SOUTHEAST ARIZONA
NATIONAL WEATHER SERVICE TUCSON AZ
415 PM MST SAT MAR 28 2015

AZZ504>506-514-290015-
LOCATION       SKY/WX    TMP DP  RH WIND       PRES   REMARKS
TUCSON         SUNNY     92  15   6 NW7       30.04F
DAVIS-MONTHAN  SUNNY     90  18   7 NW7       30.03
CHILDRENS PARK N/A       90  18   7 NW7               PIMA CO DEQ
ALVERNON/22ND  N/A      N/A N/A N/A N/A               PIMA CO DEQ
CHERRY/GLENN   N/A      N/A N/A N/A N/A               PIMA CO DEQ
TANGERINE      N/A       90 N/A N/A NW6               PIMA CO DEQ
CONTL RANCH    N/A       92  25   9 NW5               PIMA CO DEQ
GRANT/1ST      N/A       90  18   7 NW6               PIMA CO DEQ
CRAYCROFT/22ND N/A      N/A N/A N/A N/A               PIMA CO DEQ
GOLFLINKS/KOLB N/A       89  20   8 NW4               PIMA CO DEQ
AJO/12TH       N/A       90  18   7 NW3               PIMA CO DEQ
SAGUARO EAST   N/A      N/A N/A N/A N/A               PIMA CO DEQ
FAIRGROUNDS    N/A       88 N/A N/A NW6               PIMA CO DEQ
SAGUARO        N/A       92   6   4 W11G19            *SABINO CYN
SAN CARLOS     N/A       90  24   9 SE4G10            *SAN CARLOS
GREEN VALLEY   N/A       89  17   7 N4                PIMA CO DEQ
HORSE CAMP CYN N/A       83  16   8 W12G24            *ARAVAIPA CYN
RINCON MTNS    N/A       69  10  10 W4G15             *NR MANNING CAMP
$$

AZZ509>511-290015-
LOCATION       SKY/WX    TMP DP  RH WIND       PRES   REMARKS
SAFFORD        SUNNY     90  12   5 NW16G25   30.02F
STRAY HORSE    N/A       68 -10   4 W14G31            *
TRAIL CABIN    N/A       76  -3   4 W10G21            *N OF GRANVILLE
BLACK HILLS    N/A       89   9   5 NW16G26           *N OF FT THOMAS
DRY LAKE       N/A       72   7   8 W6G14             *NATANES MTNS
NOON CREEK     N/A       81  19  10 NE8G15            *PINALENO MTNS
COLUMBINE      N/A       60 -16   4 S9G24             *PINALENO MTNS
GUTHRIE        N/A       76   0   5 W12G28            *SW OF GUTHRIE
$$

AZZ502-503-513-290015-
LOCATION       SKY/WX    TMP DP  RH WIND       PRES   REMARKS
NOGALES        SUNNY     88  17   7 NW8       30.10F
SELLS          N/A       93  12   5 NW7G16            *
SASABE         N/A       90  18   7 SW11G20           *ALTAR VLY
HOPKINS        N/A       79  15   9 W8G17             *SANTA RITA MTNS
CARR CYN       N/A       83  16   8 NE4G10            *W OF HEREFORD
$$

AZZ507-508-512-290015-
LOCATION       SKY/WX    TMP DP  RH WIND       PRES   REMARKS
SIERRA VISTA   SUNNY     83  11   6 W12G23    30.15S
DOUGLAS        SUNNY     86  18   8 VRB7      30.10F
EMPIRE MTNS    N/A       82  15   8 NW10G25           *LAS CIENEGAS NCA
MULESHOE RANCH N/A       84  16   8 NW12G21           *PRESERVE
HEADQUARTERS   N/A       80   7   6 W7G17             *CHIRICAHUA MTNS
$$

.............................NOTES.............................
THIS IS AN AUTOMATED COLLECTIVE WITH MINIMAL QUALITY CONTROL.
PIMA CO DEQ SITES HAVE NONSTANDARD WIND SENSOR HEIGHTS.
PIMA CO DEQ SITES DO NOT REPORT WIND GUSTS.
* INDICATES WIND SENSORS LOCATED AT 20 FEET INSTEAD OF 33 FEET.
..............................KEY..............................
SKY/WX - SKY CONDITION/WEATHER
TMP    - TEMPERATURE IN FAHRENHEIT
DP     - DEWPOINT IN FAHRENHEIT
RH     - RELATIVE HUMIDITY IN PERCENT
WIND   - DIRECTION AND SPEED IN MILES PER HOUR (MPH)
VRB    - VARIABLE WIND DIRECTION
PRES   - MEAN SEA LEVEL PRESSURE IN INCHES OF MERCURY
         F - FALLING PRESSURE   R - RISING PRESSURE
         S - STEADY PRESSURE
VSB    - VISIBILITY IN MILES
HX     - HEAT INDEX IN FAHRENHEIT
WCI    - WIND CHILL INDEX IN FAHRENHEIT
N/A    - NOT AVAILABLE
AFB    - AIR FORCE BASE
         DAVIS-MONTHAN IS DAVIS-MONTHAN AIR FORCE BASE
CYN    - CANYON
MTNS   - MOUNTAINS
NCA    - NATIONAL CONSERVATION AREA
NR     - NEAR
VLY    - VALLEY
CONTL  - CONTINENTAL
PIMA CO DEQ - PIMA COUNTY DEPT OF ENVIRONMENTAL QUALITY



USA.gov is the U.S. government's official web portal to all federal, state and local government web resources and services.